Location: Ophir Loop
(37.8597°N, 107.8684°W)
Time: 02:02:12
(UTC+00:00)

Daily predictions for brighter satellites

Satellite Brightness Start Highest point End
(mag) Time Altitude Azimuth Time Altitude Azimuth Time Altitude Azimuth
Cosmos 1844 Rocket 3.3 02:32:10 10° SSW 02:37:39 62° WNW 02:43:12 10° NNE
Cosmos 2278 Rocket 3.4 02:35:43 10° SE 02:39:45 20° E 02:43:48 10° NE
Sich 1 3.8 02:38:54 10° NNE 02:42:52 33° ENE 02:46:50 10° SE
Cosmos 2084 3.3 02:40:43 10° SSW 02:44:48 74° ESE 02:48:58 10° NE
SJ-6B 3.2 02:42:36 10° SSE 02:46:19 46° ENE 02:50:09 10° N
MetOp-A 4.2 02:42:07 10° SSE 02:47:27 76° ENE 02:52:48 10° N
Okean-O 4.2 02:44:33 10° SSW 02:48:38 37° W 02:52:46 10° NNW
Cosmos 1354 Rocket 4.0 02:45:53 10° S 02:51:03 67° ESE 02:56:16 10° NNE
Cosmos 1151 Rocket 4.1 02:48:10 10° SSE 02:51:49 27° E 02:55:30 10° NNE
Intercosmos 25 Rocket 3.5 02:47:01 10° N 02:51:55 60° E 02:55:19 10° SSE
CSL-04 Rocket 4.2 02:49:26 10° S 02:54:39 62° WSW 02:59:59 10° NNW
ATLAS 5 CENTAUR R/B 2.7 02:49:05 10° NNW 02:54:48 57° NE 03:01:21 10° SE
CZ-4C R/B 3.9 02:50:52 10° NNW 02:57:26 34° NE 03:04:45 10° ESE
Intercosmos 24 3.6 03:00:47 10° S 03:04:33 73° E 03:08:06 10° NNE
NOSS 3-3 (A) 3.9 03:00:17 10° SSW 03:05:52 89° WNW 03:12:12 10° NNE
NOSS 3-3 (C) 3.9 03:00:24 10° SSW 03:06:00 89° WNW 03:12:19 10° NNE
SL-4 R/B 3.9 03:02:43 10° WNW 03:06:24 27° SW 03:10:16 10° S
USA 186 2.8 03:11:51 10° SSW 03:14:07 31° W 03:16:18 10° NNW
Cosmos 1745 Rocket 3.9 03:07:59 10° N 03:14:11 83° E 03:20:18 10° S
Cosmos 1242 Rocket 2.6 03:12:23 10° SSW 03:15:56 77° W 03:19:29 10° N
Cosmos 1709 Rocket 4.3 03:10:20 10° N 03:16:14 48° E 03:21:27 13° SSE
Cosmos 1833 Rocket 3.9 03:13:20 10° N 03:18:08 28° ENE 03:21:40 15° ESE
GPS 2-04 Rocket1 2.8 03:16:13 10° WSW 03:20:20 63° S 03:23:20 17° E
SPOT 3 Rocket 4.3 03:18:17 16° SE 03:21:49 37° ENE 03:26:31 10° N
Resurs 01 Rocket 2.3 03:19:13 17° SE 03:22:06 37° ENE 03:26:12 10° N
Meteor 1-25 Rocket 4.3 03:17:39 10° N 03:23:32 82° E 03:29:21 10° S
Cosmos 773 Rocket 4.5 03:18:43 10° N 03:23:49 45° ENE 03:27:15 19° SE
X-37B 0.7 03:21:41 10° WNW 03:24:51 68° NNE 03:26:35 24° ESE
MOS 1 4.3 03:24:22 10° SSE 03:30:02 89° WSW 03:35:45 10° NNW
Cosmos 1515 Rocket 4.3 03:30:24 22° SE 03:32:29 33° E 03:36:27 10° NNE
OBJECT-B 2.4 03:29:39 10° SSW 03:32:37 33° W 03:35:37 10° NNW
Delta 2 Rocket 3.8 03:31:48 10° WSW 03:36:55 59° S 03:39:54 21° E
Cosmos 2315 Rocket 4.0 03:35:25 10° S 03:41:46 85° E 03:48:12 10° N
Cosmos 1633 Rocket 3.0 03:37:55 10° N 03:42:20 77° E 03:45:04 23° SSE
Cosmos 1328 Rocket 3.5 03:42:17 10° S 03:46:43 87° W 03:51:09 10° N
Cosmos 1271 Rocket 3.7 03:46:58 28° E 03:47:09 28° E 03:50:37 10° NNE
ISS -3.0 03:44:29 10° SSW 03:46:50 34° S 03:46:50 34° S
Milstar 3 4.3 03:32:36 10° WSW 03:49:28 51° S 03:56:12 21° ESE
USA 308 4.4 03:50:28 10° NNW 03:54:11 27° NNE 03:56:12 19° ENE
Cosmos 1777 Rocket 4.3 03:51:16 10° SSW 03:56:25 66° WNW 04:01:36 10° NNE
Terra 3.7 03:56:00 14° ENE 03:56:51 15° ENE 03:59:29 10° NNE
Cosmos 1470 Rocket 3.6 03:52:33 10° N 03:57:00 61° E 03:58:36 37° SE
Cosmos 1602 4.5 03:54:56 10° NNW 03:58:42 50° W 04:01:06 20° SSW
Cosmos 1437 3.8 03:57:12 17° SW 03:59:01 38° WNW 04:01:42 10° N
Tianhe-1 1.9 03:58:10 10° SW 04:00:19 37° SSW 04:00:19 37° SSW
Ariane Rocket 3.9 03:57:01 11° S 04:01:32 44° W 04:06:23 10° NNW
MetOp-B 4.1 03:59:55 31° SSE 04:02:31 71° ENE 04:07:51 10° N
Cosmos 2082 Rocket 3.2 03:58:09 10° N 04:03:10 32° ENE 04:05:04 26° E
ARIANE 5 R/B 3.2 04:08:41 36° E 04:09:15 38° ENE 04:13:16 10° N
Cosmos 1933 Rocket 3.6 04:06:44 10° N 04:11:00 55° E 04:11:40 49° ESE
OAO 3 Rocket 3.4 04:07:40 10° WSW 04:12:04 44° SSE 04:12:04 44° SSE
SPOT 5 3.9 04:12:49 30° E 04:13:52 33° ENE 04:18:32 10° N
Cosmos 1898 Rocket 4.4 04:14:18 30° E 04:14:18 30° E 04:18:29 10° NE
Cosmos 1812 3.0 04:12:34 32° SSW 04:14:11 66° W 04:18:02 10° N
SJ 16-02 1.5 04:13:23 18° SSW 04:16:40 72° WNW 04:21:07 10° NNE
COSMOS 2406 3.1 04:11:14 10° NNW 04:16:56 84° ENE 04:19:01 41° SSE
Cosmos 1943 Rocket 3.5 04:20:39 23° E 04:20:39 23° E 04:23:47 10° NE
Cosmos 990 Rocket 4.3 04:19:25 43° ESE 04:19:41 43° ESE 04:24:39 10° NNE
Cosmos 1666 2.7 04:16:52 10° N 04:20:21 61° ENE 04:20:21 61° ENE
Cosmos 2278 Rocket 3.1 04:17:55 10° SW 04:23:23 50° WNW 04:28:53 10° NNE
Iridium 4 Rocket 3.7 04:22:33 40° SSE 04:24:44 73° E 04:30:38 10° N
Landsat 7 4.3 04:24:44 33° SSW 04:26:40 55° W 04:31:21 10° NNW
Meteor 2-6 Rocket 4.3 04:23:08 21° SSW 04:26:51 70° W 04:32:22 10° N
Cosmos 2369 Rocket 4.3 04:33:00 11° ENE 04:33:00 11° ENE 04:33:32 10° ENE
USA 305 3.2 04:29:16 10° NW 04:33:28 55° NE 04:33:43 54° NE
Meteor 1-27 Rocket 3.8 04:34:49 51° SE 04:36:04 64° E 04:41:54 10° NNE
ATLAS 5 CENTAUR R/B 4.1 04:34:22 10° WNW 04:39:19 26° WSW 04:42:54 17° SSW
Cosmos 158 Rocket 3.7 04:35:08 10° NNW 04:40:01 70° ENE 04:40:24 66° ESE
SPOT 1/Viking Rocket 3.9 04:44:07 42° SSW 04:45:37 57° W 04:50:44 10° NNW
CZ-4C R/B 3.3 04:38:57 10° NW 04:46:30 63° WSW 04:49:57 38° S
BREEZE-M DEB (TANK) 4.3 04:45:26 10° WNW 04:48:59 26° WSW 04:48:59 26° WSW
NOSS 3-4 (A) 3.9 04:45:01 10° NNW 04:52:13 80° ENE 04:54:35 49° SE
NOSS 3-4 (C) 3.9 04:45:07 10° NNW 04:52:20 79° ENE 04:54:41 49° SE
USA 306 3.1 04:48:43 10° NW 04:52:29 67° NNW 04:52:29 67° NNW
Resurs 01 Rocket 3.9 04:56:47 14° WSW 04:58:41 18° W 05:01:42 10° NW
Cosmos 2228 Rocket 3.4 04:58:51 59° W 04:59:00 59° W 05:03:25 10° N
Cosmos 2112 Rocket 4.5 04:54:11 10° N 04:59:21 47° ENE 04:59:21 47° ENE
Cosmos 1536 3.7 04:57:25 10° N 05:00:19 45° N 05:00:19 45° N
Cosmos 1833 Rocket 3.6 04:56:55 10° NW 05:02:06 39° WSW 05:03:23 34° SW
Cosmos 2154 Rocket 3.9 04:55:57 10° N 05:02:17 84° E 05:03:18 65° SSE
ATLAS 2AS CENTAUR R/B 3.0 04:58:27 10° NNW 05:05:37 57° NE 05:07:07 48° E
Nadezhda 1 Rocket 4.1 05:06:24 46° SSW 05:08:17 72° W 05:14:33 10° N
Spot 2 Rocket 4.1 05:08:20 43° WSW 05:08:57 45° W 05:13:47 10° NNW
Cosmos 2184 Rocket 4.4 05:03:07 10° NNW 05:09:09 57° W 05:10:49 44° SW
Meteor 1-11 Rocket 3.9 05:03:50 10° NNW 05:09:46 71° W 05:10:37 61° SW
ERS-1 Rocket 3.0 05:09:55 69° WSW 05:09:57 69° WSW 05:14:59 10° NNW
Cosmos 1937 Rocket 3.6 05:13:18 63° NE 05:13:18 63° NE 05:17:41 10° NNE
Cosmos 1869 Rocket 4.4 05:16:09 10° NNW 05:19:35 47° NW 05:19:35 47° NW
USA 307 4.2 05:16:22 10° NW 05:19:05 37° WNW 05:19:05 37° WNW
Cosmos 2297 4.0 05:23:59 54° WSW 05:24:59 64° WNW 05:30:39 10° NNE
Cosmos 1680 Rocket 3.6 05:20:25 10° NNW 05:25:18 74° NW 05:25:18 74° NW
Terra 2.5 05:34:53 49° WNW 05:34:53 49° WNW 05:38:47 10° NNW
Cosmos 2181 Rocket 4.0 05:38:28 68° ENE 05:38:28 68° ENE 05:44:06 10° NNE
Cosmos 44 3.8 05:33:17 10° NNW 05:37:49 62° NNW 05:37:49 62° NNW
Cosmos 1461 4.3 05:41:06 40° N 05:41:06 40° N 05:44:13 10° NNE
SL-24 R/B - RUBIN 2 4.5 05:37:14 10° NNW 05:41:20 53° NNW 05:41:20 53° NNW
Cosmos 2366 rocket 4.2 05:40:05 10° N 05:45:43 57° ENE 05:45:43 57° ENE
Cosmos 2082 Rocket 3.4 05:42:13 10° NW 05:46:55 32° W 05:46:55 32° W
Cosmos 1607 4.3 05:57:01 55° ENE 05:57:01 55° ENE 06:02:08 10° NE
Cosmos 1818 4.0 05:50:19 10° NNW 05:54:48 58° N 05:54:48 58° N
Cosmos 2341 Rocket 4.2 05:54:50 10° NNW 06:01:04 66° W 06:01:04 66° W
Cosmos 1943 Rocket 3.1 06:02:06 40° W 06:02:46 42° WNW 06:08:04 10° N
Cosmos 2218 Rocket 4.1 06:05:40 10° N 06:11:27 75° NNW 06:11:27 75° NNW
Cosmos 2369 Rocket 2.7 06:14:45 56° NNW 06:14:45 56° NNW 06:19:26 10° NNE
Lacrosse 5 4.4 06:27:22 12° ENE 06:27:22 12° ENE 06:27:43 10° ENE
Milstar 3 4.4 06:23:30 10° W 06:29:47 30° WSW 06:29:47 30° WSW
Gbstr 26 Del rocket 4.4 06:40:23 10° NW 06:45:55 56° NW 06:45:55 56° NW
ATLAS 2AS CENTAUR R/B 4.2 06:50:21 10° NW 06:54:32 24° W 06:54:32 24° W
Cosmos 1934 Rocket 4.3 07:21:34 10° N 07:26:30 60° N 07:26:30 60° N
ATLAS CENTAUR R/B 4.3 07:42:25 11° NNW 07:42:25 11° NNW 07:42:42 10° NNW
SeaSat 1 3.6 07:37:36 10° NNE 07:40:49 40° N 07:40:49 40° N
COSMOS 2455 4.2 07:40:25 10° N 07:45:49 33° NE 07:47:29 28° E
Cosmos 1727 Rocket 4.3 07:54:04 63° ENE 07:54:04 63° ENE 07:59:48 10° NNE
Lacrosse 4 Rocket 4.3 08:02:37 12° ENE 08:02:37 12° ENE 08:03:12 10° ENE
SL-16 R/B 4.0 08:00:36 24° E 08:02:57 31° ENE 08:08:18 10° N
Cosmos 2344 4.4 07:54:02 10° NW 08:04:06 75° WSW 08:08:19 49° S
Lacrosse 5 3.2 08:06:31 34° NNW 08:06:31 34° NNW 08:10:41 10° NNE
ADEOS II 4.3 08:03:54 10° ENE 08:06:35 14° E 08:06:52 14° E
Cosmos 1932 4.5 08:15:14 78° NE 08:15:14 78° NE 08:21:07 10° NNE
CZ-2D R/B 3.2 08:10:05 10° NNE 08:14:26 37° E 08:14:26 37° E
BREEZE-M DEB (TANK) 3.6 08:19:53 47° ENE 08:19:53 47° ENE 08:26:46 10° NE
Resurs 1-4 Rocket 2.9 08:16:00 10° NNE 08:20:20 43° ENE 08:20:20 43° ENE
Cosmos 1697 Rocket 3.6 08:24:06 38° E 08:24:06 38° E 08:28:43 10° NE
USA 215 3.2 08:26:21 48° ESE 08:28:24 80° NE 08:34:57 10° NW
Cosmos 1459 Rocket 4.1 08:25:24 10° N 08:31:35 64° E 08:32:04 61° ESE
BREEZE-M DEB (TANK) 4.3 08:34:24 46° NW 08:35:10 50° NNW 08:46:21 10° ENE
Cosmos 1980 Rocket 3.7 08:35:56 25° ESE 08:36:20 25° ESE 08:40:52 10° NE
USA 281 3.3 08:36:07 53° SE 08:37:42 72° ENE 08:44:15 10° NNW
Cosmos 1626 4.5 08:42:30 20° ENE 08:42:30 20° ENE 08:44:20 10° NE
Cosmos 1975 Rocket 4.1 08:45:41 43° NNE 08:45:41 43° NNE 08:48:38 10° N
Cosmos 1315 Rocket 4.5 08:43:54 10° N 08:46:05 31° N 08:46:05 31° N
Cosmos 2173 Rocket 3.8 08:41:43 10° N 08:47:56 88° E 08:48:19 80° SSE
UNK 4.3 08:49:44 54° NE 08:49:44 54° NE 08:53:48 10° N
Cosmos 304 Rocket 4.3 08:51:51 55° ENE 08:51:51 55° ENE 08:55:53 10° NNE
Cosmos 2227 Rocket 2.6 08:45:46 10° NNW 08:51:21 59° ENE 08:52:41 46° ESE
Timation 2 Rocket 4.1 08:45:32 10° NNW 08:51:30 66° ENE 08:53:10 46° SE
Cosmos 2061 Rocket 4.4 08:45:30 10° N 08:51:45 58° E 08:53:37 43° SE
Cosmos 2297 Rocket 2.1 08:48:21 10° NNW 08:54:02 82° ENE 08:54:12 81° E
In-Cosmos 22 4.2 08:54:53 73° NW 08:54:53 73° NW 09:00:08 10° N
Cosmos 2369 4.0 08:56:40 56° ESE 08:56:59 57° ESE 09:02:36 10° NNE
ARGOS Delta rocket 4.3 08:55:02 10° NNE 08:59:37 56° E 08:59:37 56° E
SL-19 R/B 4.0 08:59:50 10° NNE 09:05:23 81° ESE 09:05:38 78° SE
OAO 2 Rocket 4.3 09:08:20 36° ESE 09:08:20 36° ESE 09:11:53 10° E
Cosmos 1371 Rocket 4.4 09:06:35 53° ESE 09:06:55 54° ESE 09:11:59 10° NNE
Cosmos 1656 4.3 09:08:06 41° WNW 09:08:09 41° WNW 09:13:22 10° N
Cosmos 1025 Rocket 3.4 09:08:50 61° NE 09:08:50 61° NE 09:12:32 10° N
Cosmos 2251 Rocket 3.8 09:09:22 10° NNW 09:13:42 54° WNW 09:13:42 54° WNW
Cosmos 2100 Rocket 4.2 09:11:12 10° NNW 09:17:14 50° W 09:17:29 49° W
Cosmos 614 Rocket 3.8 09:12:54 10° NNW 09:17:45 74° WNW 09:17:45 74° WNW
Cosmos 2123 Rocket 3.9 09:18:35 62° SW 09:19:30 72° W 09:25:43 10° N
Cosmos 1802 Rocket 3.9 09:13:34 10° NNW 09:19:38 65° W 09:20:19 60° SW
Cosmos 1140 Rocket 4.3 09:14:58 10° N 09:20:02 49° ENE 09:23:28 20° SE
IRS-1D 3.9 09:14:57 10° NNE 09:20:14 59° E 09:21:23 48° SSE
Cosmos 1340 4.2 09:24:28 28° E 09:24:46 28° E 09:28:00 10° NNE
Helios 1B rocket 3.6 09:21:05 10° N 09:24:03 34° NW 09:24:03 34° NW
Cosmos 1908 4.1 09:21:13 10° N 09:23:56 43° NNW 09:23:56 43° NNW
IDEFIX/ARIANE 42P 3.5 09:22:40 10° NNE 09:27:39 41° E 09:29:42 29° SE
Meteor 1-28 Rocket 4.3 09:28:39 36° E 09:29:16 39° ENE 09:32:45 10° N
COSMOS 2455 3.6 09:26:16 10° NW 09:30:33 35° W 09:30:33 35° W
Cosmos 332 Rocket 4.4 09:32:25 42° WNW 09:32:26 42° WNW 09:37:03 10° N
Cosmos 2219 3.4 09:33:11 10° NW 09:38:34 47° WSW 09:38:34 47° WSW
Lacrosse 4 Rocket 2.0 09:38:55 48° WNW 09:38:58 48° WNW 09:43:16 10° NNE
Cosmos 2322 Rocket 4.5 09:35:47 10° SE 09:39:16 17° E 09:42:46 10° ENE
Timation 1 Rocket 4.2 09:34:15 10° NNW 09:40:14 80° WSW 09:43:27 29° SSE
Cosmos 1953 3.7 09:37:48 10° NNW 09:40:06 28° NW 09:40:06 28° NW
Cosmos 1544 Rocket 3.7 09:37:40 10° NNW 09:41:45 58° WNW 09:41:45 58° WNW
Cosmos 1190 Rocket 4.2 09:40:22 10° NNW 09:45:36 72° ENE 09:49:43 17° SSE
Cosmos 2263 Rocket 4.2 09:41:21 10° N 09:46:13 29° ENE 09:51:05 10° ESE
SL-16 R/B 2.9 09:45:41 40° WSW 09:46:20 41° W 09:52:13 10° NNW
Meteor 1-24 Rocket 4.0 09:43:45 31° SSE 09:46:21 62° E 09:51:43 10° NNE
ADEOS II 2.1 09:41:28 10° N 09:46:40 64° WNW 09:47:49 50° SW
ARIANE 5 R/B 3.8 09:42:11 10° NNE 09:46:53 36° E 09:50:04 18° SSE
APEX 3.9 09:44:03 10° NNW 09:48:52 82° WSW 09:53:29 17° SSE
Cosmos 1420 Rocket 4.0 09:47:56 44° S 09:49:35 74° ESE 09:54:46 10° NNE
Cosmos 1447 Rocket 4.5 09:47:44 36° S 09:50:35 88° W 09:56:59 10° N
CZ-2D R/B 3.4 09:50:35 10° NNW 09:54:53 25° WNW 09:55:45 24° W
CZ-4B R/B 4.2 09:52:21 10° NNE 09:57:15 49° E 10:00:27 21° SSE
Cosmos 1536 Rocket 3.7 09:57:19 51° WSW 09:57:44 53° W 10:02:05 10° N
Resurs 1-4 Rocket 3.6 09:56:38 10° NNW 10:00:30 21° WNW 10:01:25 20° W
ADEOS Rocket 3.5 09:59:25 15° S 10:05:50 75° WSW 10:13:38 10° NNW
Meteor 2-5 Rocket 3.7 10:04:04 36° SSW 10:06:27 69° W 10:12:05 10° N
GP-B 3.4 10:03:07 10° N 10:07:25 49° W 10:08:12 43° WSW
CZ-4C R/B 3.4 10:05:32 31° S 10:07:34 85° WSW 10:11:45 10° NNW
Cosmos 1697 Rocket 3.9 10:05:50 23° W 10:07:35 27° WNW 10:12:20 10° N
Cosmos 407 Rocket 3.7 10:02:32 10° NNW 10:07:43 52° WSW 10:09:48 33° SSW
Aureole 2 Rocket 4.0 10:06:02 10° N 10:08:21 25° ENE 10:10:40 10° SE
Cosmos 676 Rocket 4.3 10:04:15 10° NNW 10:09:30 70° ENE 10:14:46 10° SSE
Cosmos 405 3.5 10:06:09 10° N 10:09:37 55° E 10:11:42 21° SSE
SL-14 R/B 4.1 10:10:11 33° WNW 10:10:11 33° WNW 10:13:48 10° NNW
USA 215 4.4 10:13:35 22° W 10:13:35 22° W 10:16:57 10° WNW
Cosmos 292 Rocket 4.0 10:10:34 29° S 10:13:02 70° ESE 10:17:53 10° NNE
Atlas Centaur 2 3.8 10:11:02 23° SSW 10:13:41 29° SSE 10:19:17 10° ESE
CBERS-1 4.3 10:09:49 10° N 10:14:45 51° WNW 10:16:44 33° SW
Cosmos 1626 4.1 10:17:00 16° WNW 10:17:00 16° WNW 10:18:57 10° NNW
BREEZE-M DEB (TANK) 2.9 10:17:07 35° NNW 10:17:07 35° NNW 10:19:27 10° NE
ISS -1.7 10:15:12 10° NNW 10:18:14 30° NNE 10:21:16 10° E
Cosmos 1980 Rocket 2.8 10:17:42 28° WSW 10:20:03 42° WNW 10:25:25 10° N
Cosmos 2233 Rocket 4.3 10:15:42 10° NNW 10:21:31 45° W 10:24:41 25° SSW
CENTAUR R/B 3.4 10:21:27 13° S 10:25:59 39° ESE 10:31:56 10° NE
Spot 1 4.4 10:25:08 22° S 10:28:00 55° W 10:32:48 10° NNW
Cosmos 1452 Rocket 3.5 10:30:10 22° SSW 10:33:38 83° WNW 10:38:57 10° NNE
Cosmos 1300 3.5 10:30:33 10° NNW 10:33:59 32° W 10:34:42 29° WSW
Cosmos 2227 Rocket 3.7 10:31:19 10° WNW 10:34:25 17° W 10:34:25 17° W
CZ-2D R/B 3.7 10:30:31 10° NNE 10:34:57 80° E 10:38:33 15° S
ATLAS 2A CENTAUR R/B 3.6 10:32:55 11° S 10:35:14 16° SE 10:39:58 10° ESE
Cosmos 220 Rocket 4.3 10:33:33 28° SW 10:35:38 52° WNW 10:39:58 10° N
Cosmos 1954 Rocket 4.0 10:30:54 10° NNW 10:36:08 64° WSW 10:41:22 10° S
Cosmos 2297 Rocket 4.2 10:35:31 10° WNW 10:35:57 11° W 10:35:57 11° W
Cosmos 1346 Rocket 2.7 10:39:36 16° S 10:42:36 87° E 10:46:31 10° N
Cosmos 389 Rocket 4.1 10:40:06 10° N 10:43:21 35° ENE 10:46:32 10° SE
CZ-2C R/B 3.0 10:41:47 10° NNE 10:46:54 61° E 10:52:01 10° S
Spot 4 Rocket 4.1 10:42:49 10° NNE 10:47:59 86° ESE 10:53:07 10° SSW
Cosmos 1455 2.7 10:46:09 10° N 10:49:57 60° E 10:53:45 10° SSE
ALOS 3.8 10:47:06 10° NNE 10:51:22 35° E 10:55:36 10° SSE
OAO 2 Rocket 3.5 10:47:16 17° W 10:51:24 65° S 10:56:40 10° E
Cosmos 1110 Rocket 4.2 10:48:49 10° S 10:53:58 72° ESE 10:59:08 10° NNE
SL-16 R/B 2.2 10:50:34 14° SSW 10:55:28 79° WNW 11:01:10 10° NNE
Cosmos 1703 3.9 10:53:31 10° S 10:57:17 56° E 11:01:06 10° NNE
MSX 4.4 10:52:17 10° N 10:57:41 42° WNW 11:02:20 14° SW
Cosmos 1850 Rocket 4.3 10:54:54 10° NNW 11:00:17 76° ENE 11:05:36 10° SSE
SL-08 R/B 3.4 10:56:26 10° S 11:01:00 51° W 11:05:33 10° NNW
Cosmos 1892 Rocket 3.7 10:58:35 13° SSW 11:02:21 52° W 11:06:36 10° N
IDEFIX/ARIANE 42P 3.9 11:02:53 10° NNW 11:06:56 23° WNW 11:10:31 12° WSW
BREEZE-M DEB (TANK) 3.8 11:07:07 10° WNW 11:08:54 15° NNW 11:10:24 10° NNE
Meteor 2-1 Rocket 4.4 11:04:33 10° N 11:10:14 77° E 11:15:47 10° SSE
Cosmos 1741 Rocket 4.0 11:05:38 10° NNW 11:10:53 90° W 11:16:06 10° SSE
CZ-2C R/B 2.9 11:13:15 10° N 11:17:14 64° WNW 11:21:14 10° SSW
Okean 1-7 Rocket 3.7 11:13:10 10° SSW 11:17:39 64° W 11:22:12 10° N
USA 32 4.1 11:12:47 10° NNW 11:17:58 60° W 11:23:07 10° S
NOSS 3-2 (C) 3.3 11:12:36 10° SSW 11:18:03 84° ESE 11:24:14 10° NE
Meteor 2-10 Rocket 4.4 11:16:44 10° NNW 11:21:45 34° W 11:26:36 10° SSW
Cosmos 2322 Rocket 2.4 11:17:08 10° SW 11:22:42 60° WNW 11:28:21 10° NNE
Cosmos 2058 Rocket 3.2 11:19:34 10° NNW 11:24:00 56° W 11:28:24 10° S
ARIANE 5 R/B 3.8 11:21:39 10° NNW 11:25:45 25° WNW 11:29:48 10° WSW
Cosmos 1726 Rocket 4.4 11:22:35 10° NNW 11:26:25 30° W 11:30:15 10° SSW
Cosmos 2263 Rocket 2.7 11:25:01 10° NW 11:30:10 38° WSW 11:35:21 10° S
SL-24 R/B 3.8 11:26:29 10° S 11:30:11 81° WSW 11:34:18 10° NNW
Cosmos 1844 Rocket 4.2 11:27:09 10° N 11:32:33 44° ENE 11:37:55 10° SE
